Regional Weather Roundup
Issued by NWS

Home | Current Version | Previous Version | Graphics & Text | Print | Product List | Glossary On
Versions: 1 2 3 4 5 6 7 8 9 10 11 12 13 14 15 16 17 18 19 20 21 22 23 24 25 26 27 28
000
ASUS45 KPSR 231810
RWRAZ

ARIZONA HOURLY REGIONAL WEATHER ROUNDUP
NATIONAL WEATHER SERVICE PHOENIX AZ
1100 AM MST THU FEB 23 2017

NOTE: FAIR INDICATES FEW OR NO CLOUDS BELOW 12,000 FEET WITH NO
SIGNIFICANT WEATHER AND/OR OBSTRUCTIONS TO VISIBILITY.

AZZ001>003-036-231900-
NORTHWEST ARIZONA

CITY           SKY/WX    TMP DP  RH WIND       PRES   REMARKS
BULLHEAD CITY  SUNNY     55  25  30 CALM      29.99S
KINGMAN        MOSUNNY   47  10  22 W10       29.94S
6HR MIN TEMP:  34; 6HR MAX TEMP:  47;

$$

AZZ004>008-015-016-018-231900-
NORTH CENTRAL ARIZONA

CITY           SKY/WX    TMP DP  RH WIND       PRES   REMARKS
GRAND CANYON   PTSUNNY   30  15  53 W14G24    29.83S WCI  19
6HR MIN TEMP:  11; 6HR MAX TEMP:  31;

WILLIAMS       PTSUNNY   30  18  59 W14       29.86R WCI  20
PRESCOTT       MOSUNNY   41  18  39 NW7       29.89S
6HR MIN TEMP:  26; 6HR MAX TEMP:  41;

FLAGSTAFF      MOSUNNY   32  15  49 W9G17     29.83S WCI  24
6HR MIN TEMP:  25; 6HR MAX TEMP:  33;

PAYSON         SUNNY     43  18  36 W8G15     29.91S
PAGE           SUNNY     42   5  21 W16G25    29.82S
6HR MIN TEMP:  37; 6HR MAX TEMP:  43;

$$

AZZ009>014-017-231900-
NORTHEAST ARIZONA

CITY           SKY/WX    TMP DP  RH WIND       PRES   REMARKS
WINSLOW        PTSUNNY   45  15  30 NW9G18    29.85S
6HR MIN TEMP:  34; 6HR MAX TEMP:  45;

SAINT JOHNS    SUNNY     44  16  32 W16       29.80F
6HR MIN TEMP:  38; 6HR MAX TEMP:  44;

WINDOW ROCK    SUNNY     36  10  34 W14G24    29.79F WCI  27
6HR MIN TEMP:  29; 6HR MAX TEMP:  38; 6HR PCP: TRACE;

SHOW LOW       SUNNY     39   1  20 SW23      29.84S WCI  29
$$

AZZ023-231900-
GREATER PHOENIX AREA

CITY           SKY/WX    TMP DP  RH WIND       PRES   REMARKS
PHOENIX        MOSUNNY   57  24  28 SW6       29.94R
6HR MIN TEMP:  47; 6HR MAX TEMP:  58;

BUCKEYE        SUNNY     55  27  33 W9        29.97F
GLENDALE       SUNNY     57  28  33 SW10G17   29.96S
LUKE AFB       SUNNY     58  24  27 SW13      29.94S
6HR MIN TEMP:  46; 6HR MAX TEMP:  58; 6HR PCP: TRACE;

DEER VALLEY    SUNNY     54  27  35 W13       29.94R
6HR MIN TEMP:  46; 6HR MAX TEMP:  54;

SCOTTSDALE     SUNNY     55  24  30 SW14      29.96R
6HR MIN TEMP:  48; 6HR MAX TEMP:  55;

MESA-FALCON    SUNNY    N/A N/A N/A MISG      29.92R
MESA-GATEWAY   SUNNY     55  27  33 SW10      29.97R
CHANDLER       SUNNY     57  25  28 SW10      29.96R
$$

AZZ027-028-231900-
SOUTHWEST MARICOPA COUNTY AND PINAL COUNTY

CITY           SKY/WX    TMP DP  RH WIND       PRES   REMARKS
CASA GRANDE    NOT AVBL
GILA BEND      SUNNY     57  21  24 W9        29.98S
6HR MIN TEMP:  43; 6HR MAX TEMP:  57;

$$

AZZ503-504-507>509-231900-
SOUTHEAST ARIZONA

CITY           SKY/WX    TMP DP  RH WIND       PRES   REMARKS
TUCSON         SUNNY     57  16  20 W8        29.97R
6HR MIN TEMP:  49; 6HR MAX TEMP:  57;

DAVIS-MONTHAN  SUNNY     55  23  29 N8        29.96R
6HR MIN TEMP:  48; 6HR MAX TEMP:  55;

RYAN FIELD     SUNNY     57  18  21 MISG      29.98R
NOGALES          N/A    N/A N/A N/A MISG      29.93F
SIERRA VISTA   SUNNY     62  15  16 W21G30    29.91F
6HR MIN TEMP:  43; 6HR MAX TEMP:  62;

DOUGLAS        SUNNY     63  29  27 W20G30    29.90F
6HR MIN TEMP:  47; 6HR MAX TEMP:  64;

SAFFORD        SUNNY     58  19  22 NW13G18   29.87S
6HR MIN TEMP:  50; 6HR MAX TEMP:  58;

$$

AZZ020-021-025-026-031-231900-
SOUTHWEST ARIZONA

CITY           SKY/WX    TMP DP  RH WIND       PRES   REMARKS
YUMA           SUNNY     61  22  22 N9        30.01S
6HR MIN TEMP:  51; 6HR MAX TEMP:  61;

$$

CAZ031-033-041-043-047-048-061-231900-
SOUTHERN CALIFORNIA

CITY           SKY/WX    TMP DP  RH WIND       PRES   REMARKS
DOWNTOWN L.A.  SUNNY     57  27  31 VRB6G17   30.08F
6HR MIN TEMP:  49; 6HR MAX TEMP:  58;

L.A. AIRPORT   MOSUNNY   55  27  34 N12       30.10S
6HR MIN TEMP:  48; 6HR MAX TEMP:  55;

SAN DIEGO      PTSUNNY   60  37  42 NW10      30.10S
6HR MIN TEMP:  52; 6HR MAX TEMP:  60;

BURBANK        SUNNY     52  24  33 N15       30.08F
6HR MIN TEMP:  46; 6HR MAX TEMP:  52;

ONTARIO        MOSUNNY   51  34  52 SW5       30.07S
6HR MIN TEMP:  39; 6HR MAX TEMP:  51;

RIVERSIDE      SUNNY     52  35  52 MISG      30.06F
6HR MIN TEMP:  39; 6HR MAX TEMP:  52;

PALM SPRINGS   SUNNY     62  34  35 NW6       30.02R
6HR MIN TEMP:  52; 6HR MAX TEMP:  62;

EL CENTRO NAS  MOSUNNY   63  28  26 NW9       30.03S
6HR MIN TEMP:  47; 6HR MAX TEMP:  63;

BLYTHE         SUNNY     59  17  19 NW14      30.01S
6HR MIN TEMP:  47; 6HR MAX TEMP:  59;

NEEDLES        SUNNY     59  19  21 N9        29.98S
6HR MIN TEMP:  47; 6HR MAX TEMP:  59;

$$

NVZ020-UTZ003-231900-
SOUTHERN NEVADA-UTAH

CITY           SKY/WX    TMP DP  RH WIND       PRES   REMARKS
LAS VEGAS      MOSUNNY   50   9  19 NW12G22   29.95S
6HR MIN TEMP:  44; 6HR MAX TEMP:  51;

SALT LAKE CITY FLURRIES  31  22  69 NW13      29.79R WCI  21
6HR MIN TEMP:  28; 6HR MAX TEMP:  31; 6HR PCP:  0.01;

$$

NMZ009-TXZ055-231900-
NEW MEXICO-WEST TEXAS

CITY           SKY/WX    TMP DP  RH WIND       PRES   REMARKS
ALBUQUERQUE    MOSUNNY   52  15  23 W21       29.74R
6HR MIN TEMP:  43; 6HR MAX TEMP:  52;

EL PASO        MOSUNNY   70  29  21 SW29G39   29.77S
6HR MIN TEMP:  54; 6HR MAX TEMP:  70;

$$


........................KEY........................
SKY/WX - SKY CONDITION/WEATHER
TMP    - TEMPERATURE IN FAHRENHEIT
DP     - DEW POINT IN FAHRENHEIT
RH     - RELATIVE HUMIDITY IN PERCENT
WIND   - DIRECTION AND SPEED IN MILES PER HOUR (MPH)
VRB    - VARIABLE WIND DIRECTION
PRES   - MEAN SEA LEVEL PRESSURE IN INCHES OF MERCURY
         F - FALLING PRESSURE   R - RISING PRESSURE
         S - STEADY PRESSURE
VSB    - VISIBILITY IN MILES
HX     - HEAT INDEX IN FAHRENHEIT
WCI    - WIND CHILL INDEX IN FAHRENHEIT
TC     - TEMPERATURE IN CELSIUS WHICH IS ALSO KNOWN AS
         TEMPERATURE IN CENTIGRADE
AFB    - AIR FORCE BASE
         LUKE AFB IS LUKE AIR FORCE BASE
         DAVIS-MONTHAN IS DAVIS-MONTHAN AIR FORCE BASE
NAS    - NAVAL AIR STATION
         EL CENTRO NAS IS EL CENTRO NAVAL AIR STATION
N/A    - NOT AVAILABLE





USA.gov is the U.S. government's official web portal to all federal, state and local government web resources and services.